Waarnemingen

Advertentie
Mijn weer
Tarbes/Ossun, Frankrijk (7621): temperatuur & dauwpunt: 20.05.2017 16:00:00 - 26.05.2017 16:00:00 (CEST)Tarbes/Ossun, Frankrijk (7621): temperatuur 5cm: 20.05.2017 16:00:00 - 26.05.2017 16:00:00 (CEST)Tarbes/Ossun, Frankrijk (7621): temperatuur -20cm & temperatuur -100cm: 20.05.2017 16:00:00 - 26.05.2017 16:00:00 (CEST)Tarbes/Ossun, Frankrijk (7621): windsnelheid & windstoten: 20.05.2017 16:00:00 - 26.05.2017 16:00:00 (CEST)Tarbes/Ossun, Frankrijk (7621): windrichting: 20.05.2017 16:00:00 - 26.05.2017 16:00:00 (CEST)Tarbes/Ossun, Frankrijk (7621): luchtdruk: 20.05.2017 16:00:00 - 26.05.2017 16:00:00 (CEST)Tarbes/Ossun, Frankrijk (7621): zicht: 20.05.2017 16:00:00 - 26.05.2017 16:00:00 (CEST)Tarbes/Ossun, Frankrijk (7621): Zonneschijnduur: 20.05.2017 16:00:00 - 26.05.2017 16:00:00 (CEST)Tarbes/Ossun, Frankrijk (7621): neerslag: 20.05.2017 16:00:00 - 26.05.2017 16:00:00 (CEST)
Datum & Tijd tt [°C] td [°C] tt 5cm [°C] tt -20cm [°C] tt -100cm [°C] ff [km/u] ff [kn] fx [km/u] fx [kn] dd ppp [hPa] vv [km] sd [min] rr [mm]
26.05.2017 16:00:00 32,3 15,8 50,5 18,9 14,3 11 6 31 17 ONO 1009,6 30 60 0,0
26.05.2017 15:00:00 31,6 16,4 50,9 18,7 14,3 11 6 24 13 NO 1009,7 60 60 0,0
26.05.2017 14:00:00 31,0 15,4 48,7 18,5 14,3 12 6 29 16 NNO 1010,1 20 60 0,0
26.05.2017 13:00:00 30,2 15,5 41,3 18,4 14,3 11 6 22 12 ONO 1010,2 60 60 0,0
26.05.2017 12:00:00 28,4 15,7 34,9 18,4 14,3 8 5 28 15 ONO 1010,9 19 44 0,0
26.05.2017 11:00:00 27,6 14,6 31,4 18,4 14,3 9 5 17 9 NNO 1010,8 18 60 0,0
26.05.2017 10:00:00 26,4 14,5 24,9 18,5 14,3 6 3 14 7 O 1011,2 20 60 0,0
26.05.2017 09:00:00 24,3 14,7 17,2 18,6 14,3 5 3 23 13 ONO 1011,5 37 60 0,0
26.05.2017 08:00:00 19,5 13,2 13,5 18,7 14,3 11 6 20 11 ZO 1012,3 42 60 0,0
26.05.2017 07:00:00 16,9 12,4 13,2 18,8 14,3 8 4 16 9 Z 1012,9 28 8 0,0
26.05.2017 06:00:00 17,0 12,5 13,3 18,9 14,3 9 5 14 8 ZZO 1013,1 48 0 0,0
26.05.2017 05:00:00 18,9 12,6 13,8 19,0 14,3 10 6 16 9 ZO 1013,3 53 0 0,0
26.05.2017 04:00:00 19,2 12,7 15,0 19,1 14,3 9 5 24 13 WZW 1013,9 40 0 0,0
26.05.2017 03:00:00 19,5 13,9 - - - 11 6 39 21 ZW 1014,1 55 - 0,0
26.05.2017 02:00:00 19,4 14,0 14,2 19,3 14,3 3 1 14 8 NNW 1012,5 60 0 0,0
26.05.2017 01:00:00 19,4 14,0 14,3 19,4 14,3 4 2 8 5 Z 1012,6 60 0 0,0
26.05.2017 00:00:00 20,4 14,5 16,1 19,5 14,3 3 2 10 5 O 1012,5 60 0 0,0
25.05.2017 23:00:00 19,7 14,5 16,0 19,5 14,3 7 4 12 6 ZZW 1012,6 60 0 0,0
25.05.2017 22:00:00 24,6 13,5 17,9 19,3 14,2 4 2 11 6 ZZO 1011,4 19 3 0,0
25.05.2017 21:00:00 28,2 11,7 22,7 19,2 14,2 6 3 19 10 ONO 1011,0 60 60 0,0
25.05.2017 20:00:00 29,9 12,3 27,7 19,0 14,2 9 5 21 11 ONO 1010,5 60 60 0,0
25.05.2017 19:00:00 30,8 11,2 32,4 18,7 14,2 8 4 19 10 O 1010,7 20 57 0,0
25.05.2017 18:00:00 30,9 10,8 37,2 18,4 14,2 9 5 26 14 NO 1011,0 60 52 0,0
25.05.2017 17:00:00 31,3 12,1 45,9 18,1 14,2 10 5 29 16 NO 1011,2 58 60 0,0
25.05.2017 16:00:00 31,1 12,0 48,5 17,8 14,2 10 5 31 17 NO 1011,6 43 60 0,0
25.05.2017 15:00:00 30,6 13,8 49,5 17,5 14,2 14 8 27 15 NNO 1012,2 41 60 0,0
25.05.2017 14:00:00 29,9 12,3 47,2 17,3 14,2 12 6 25 13 NNO 1012,8 60 60 0,0
25.05.2017 13:00:00 29,3 13,1 43,8 17,2 14,2 11 6 19 10 N 1013,3 36 60 0,0
25.05.2017 12:00:00 28,0 16,9 - - - 9 5 21 11 N 1013,7 12 - 0,0
25.05.2017 11:00:00 26,5 16,1 29,5 17,2 14,2 5 3 11 6 N 1014,2 17 60 0,0
25.05.2017 10:00:00 24,1 15,8 22,9 17,3 14,2 7 4 11 6 NNO 1014,6 11 60 0,0
25.05.2017 09:00:00 21,4 16,1 16,0 17,4 14,2 2 1 6 4 NNO 1015,0 17 60 0,0
25.05.2017 08:00:00 16,5 14,3 11,9 17,5 14,2 0 0 7 4 N 1015,6 29 60 0,0
25.05.2017 07:00:00 14,0 12,4 11,1 17,6 14,2 3 1 13 7 NO 1016,0 20 7 0,0
25.05.2017 06:00:00 13,5 12,6 10,3 17,8 14,2 8 5 12 7 ZZO 1016,0 35 0 0,0
25.05.2017 05:00:00 13,4 12,5 10,3 17,9 14,2 5 3 10 5 ZZO 1016,1 50 0 0,0
25.05.2017 04:00:00 13,3 11,9 10,4 18,0 14,2 7 4 10 5 ZZW 1016,5 41 0 0,0
25.05.2017 03:00:00 14,3 12,8 10,9 18,1 14,2 3 1 7 4 ZO 1017,0 48 0 0,0
25.05.2017 02:00:00 14,3 12,8 11,1 18,2 14,2 4 2 9 5 Z 1017,9 53 0 0,0
25.05.2017 01:00:00 15,3 13,0 11,5 18,3 14,1 3 1 6 3 Z 1018,0 54 0 0,0
25.05.2017 00:00:00 16,2 13,3 12,7 18,3 14,2 5 3 7 4 Z 1018,4 60 0 0,0
24.05.2017 23:00:00 18,9 14,0 13,7 18,3 14,2 3 1 10 5 ZZO 1018,5 60 0 0,0
24.05.2017 22:00:00 22,1 12,1 15,7 18,2 14,1 5 3 17 9 ONO 1017,8 60 1 0,0
24.05.2017 21:00:00 24,2 12,5 19,3 18,1 14,1 10 6 25 14 NO 1017,2 57 49 0,0
24.05.2017 20:00:00 25,7 13,5 23,5 17,9 14,1 12 7 23 12 NO 1017,0 58 60 0,0
24.05.2017 19:00:00 26,6 13,3 29,0 17,6 14,1 12 6 31 17 NO 1017,0 20 60 0,0
24.05.2017 18:00:00 27,3 14,0 37,4 17,3 14,1 11 6 26 14 ONO 1017,3 60 60 0,0
24.05.2017 17:00:00 27,4 15,1 42,4 16,9 14,1 11 6 27 15 ONO 1017,8 57 60 0,0
24.05.2017 16:00:00 27,1 15,5 44,7 16,6 14,1 13 7 31 17 NO 1018,4 50 60 0,0
24.05.2017 15:00:00 26,4 15,4 46,1 16,3 14,1 14 7 33 18 NO 1019,0 44 60 0,0
24.05.2017 14:00:00 25,3 15,3 44,6 16,1 14,1 11 6 31 17 ONO 1019,7 20 60 0,0
24.05.2017 13:00:00 24,2 15,4 40,2 16,1 14,1 10 5 31 17 NO 1020,1 29 60 0,0
24.05.2017 12:00:00 22,8 14,4 32,8 16,0 14,1 7 4 21 11 ONO 1020,6 19 60 0,0
24.05.2017 11:00:00 21,0 14,2 25,9 16,0 14,1 9 5 20 11 NO 1021,0 19 60 0,0
24.05.2017 10:00:00 18,6 13,2 19,7 16,1 14,1 8 4 14 8 NNO 1021,7 17 60 0,0
24.05.2017 09:00:00 16,4 12,7 12,9 16,2 14,1 4 2 7 4 NNO 1022,1 19 60 0,0
24.05.2017 08:00:00 12,7 12,1 7,8 16,3 14,1 4 2 7 4 ZZO 1022,7 18 60 0,0
24.05.2017 07:00:00 9,6 8,7 7,1 16,5 14,1 6 3 10 5 Z 1023,2 11 5 0,0
24.05.2017 06:00:00 10,5 9,7 7,7 16,6 14,1 5 3 9 5 Z 1022,8 15 0 0,0
24.05.2017 05:00:00 10,8 10,2 8,5 16,8 14,1 8 4 13 7 Z 1022,9 16 0 0,0
24.05.2017 04:00:00 9,9 9,0 7,5 16,9 14,1 8 4 10 5 ZZO 1023,5 9 0 0,0
24.05.2017 03:00:00 10,0 9,2 7,1 17,0 14,1 7 4 9 5 ZZW 1024,0 11 0 0,0
24.05.2017 02:00:00 11,3 10,2 7,9 17,1 14,1 5 3 6 4 WZW 1024,2 14 0 0,0
24.05.2017 01:00:00 12,0 11,1 8,8 17,2 14,1 3 1 7 4 WNW 1024,5 2,0 0 0,0
24.05.2017 00:00:00 12,7 11,6 10,4 17,2 14,1 7 4 9 5 Z 1024,4 17 0 0,0
23.05.2017 23:00:00 13,5 11,9 10,9 17,3 14,1 7 4 9 5 Z 1024,3 19 0 0,0
23.05.2017 22:00:00 15,4 12,5 12,0 17,2 14,1 6 3 9 5 ZW 1023,5 20 0 0,0
23.05.2017 21:00:00 18,5 12,9 16,1 17,1 14,0 8 4 13 7 OZO 1022,9 44 30 0,0
23.05.2017 20:00:00 19,8 13,0 19,9 17,0 14,0 11 6 18 10 O 1022,5 31 60 0,0
23.05.2017 19:00:00 21,0 12,9 26,0 16,8 14,0 7 4 19 11 NNW 1022,3 20 60 0,0
23.05.2017 18:00:00 20,8 13,0 31,3 16,6 14,0 9 5 19 10 N 1022,4 20 55 0,0
23.05.2017 17:00:00 20,3 13,0 33,7 16,5 14,0 8 5 18 10 Z 1022,9 20 58 0,0
23.05.2017 16:00:00 19,3 12,3 26,8 16,4 14,0 6 3 16 9 ZZO 1023,3 33 26 0,0
23.05.2017 15:00:00 17,7 12,2 23,9 16,4 14,0 8 4 14 8 Z 1023,9 20 5 0,0
23.05.2017 14:00:00 16,3 11,7 21,3 16,4 14,0 3 2 12 6 WZW 1024,6 4,7 0 0,0
23.05.2017 13:00:00 15,2 11,0 19,1 16,4 14,0 4 2 11 6 NNO 1025,1 36 0 0,0
23.05.2017 12:00:00 14,3 11,1 17,7 16,5 14,0 7 4 21 11 W 1025,4 19 0 0,0
23.05.2017 11:00:00 13,5 11,0 16,4 16,6 14,0 10 5 16 9 WNW 1025,3 17 0 0,0
23.05.2017 10:00:00 13,5 10,8 15,7 16,6 14,0 10 5 19 10 W 1025,0 39 0 0,0
23.05.2017 09:00:00 13,2 11,3 14,0 16,7 14,0 10 5 16 8 WNW 1024,7 4,3 0 0,0
23.05.2017 08:00:00 12,5 11,2 13,0 16,8 14,0 8 4 13 7 WNW 1024,5 13 0 0,0
23.05.2017 07:00:00 12,2 11,1 13,1 16,9 14,0 7 4 16 9 WNW 1023,9 10 0 0,2
23.05.2017 06:00:00 12,3 11,2 13,0 17,0 14,0 9 5 14 8 WNW 1023,5 11 0 0,0
23.05.2017 05:00:00 12,5 11,6 13,3 17,1 14,0 9 5 15 8 WNW 1023,5 6 0 0,0
23.05.2017 04:00:00 12,6 11,7 13,4 17,2 14,0 9 5 21 11 W 1023,1 4,8 0 0,0
23.05.2017 03:00:00 12,6 11,5 13,8 17,2 14,0 12 7 21 11 WNW 1022,8 7 0 0,0
23.05.2017 02:00:00 12,9 11,8 13,9 17,3 14,0 9 5 22 12 WNW 1022,9 6 0 0,0
23.05.2017 01:00:00 13,2 12,1 - - - 11 6 21 11 W 1022,9 4,5 - 0,0
23.05.2017 00:00:00 14,1 12,5 15,2 17,4 13,9 11 6 20 11 W 1022,3 8 0 0,0
22.05.2017 23:00:00 14,8 12,7 15,2 17,5 14,0 10 5 20 11 W 1022,1 10 0 0,0
22.05.2017 22:00:00 14,8 12,7 14,5 17,4 13,9 13 7 29 16 W 1021,4 11 0 0,0
22.05.2017 21:00:00 17,1 13,2 17,3 17,4 13,9 18 10 31 17 W 1019,9 15 55 0,0
22.05.2017 20:00:00 20,7 14,3 22,1 17,2 13,9 21 11 36 19 WNW 1018,6 19 38 0,0
22.05.2017 19:00:00 22,3 13,9 24,2 17,1 13,9 26 14 39 21 WNW 1017,5 19 35 0,0
22.05.2017 18:00:00 22,8 13,8 25,3 16,9 14,0 23 12 39 21 WNW 1017,2 46 10 0,0
22.05.2017 17:00:00 25,1 15,4 35,8 16,6 14,0 26 14 51 28 WNW 1016,3 20 60 0,0
22.05.2017 16:00:00 25,5 15,8 30,5 16,4 13,9 26 14 40 21 NW 1016,3 20 35 0,0
22.05.2017 15:00:00 25,7 15,4 29,3 16,2 14,0 22 12 39 21 NNW 1015,9 20 36 0,0
22.05.2017 14:00:00 26,1 14,2 41,5 16,0 13,9 17 9 36 19 NW 1015,5 50 60 0,0
22.05.2017 13:00:00 25,9 12,7 40,6 15,9 13,9 12 7 29 16 NNW 1015,4 19 60 0,0
22.05.2017 12:00:00 25,6 13,4 32,6 15,8 13,9 12 7 38 21 NW 1015,1 19 56 0,0
22.05.2017 11:00:00 24,6 13,5 25,1 15,8 13,9 5 3 13 7 NNW 1014,7 20 48 0,0
22.05.2017 10:00:00 22,3 13,6 19,6 15,8 14,0 8 5 17 9 ZW 1014,9 56 35 0,0
22.05.2017 09:00:00 19,9 13,1 16,1 15,9 14,0 10 6 20 11 ZZW 1015,1 60 3 0,0
22.05.2017 08:00:00 17,4 12,5 14,0 15,9 13,9 12 7 24 13 Z 1015,1 60 0 0,0
22.05.2017 07:00:00 16,4 11,8 12,5 16,0 14,0 9 5 16 9 ZO 1014,6 59 0 0,0
22.05.2017 06:00:00 13,2 11,1 10,6 16,1 14,0 4 2 8 5 Z 1012,8 60 0 0,0
22.05.2017 05:00:00 13,4 10,4 10,5 16,2 14,0 4 2 7 4 ZZO 1012,6 60 0 0,0
22.05.2017 04:00:00 13,1 10,5 10,9 16,2 14,0 5 3 10 5 ZZO 1012,9 60 0 0,0
22.05.2017 03:00:00 13,8 11,1 12,3 16,3 14,0 6 3 8 4 ZW 1012,8 60 0 0,0
22.05.2017 02:00:00 14,3 11,3 11,5 16,4 14,0 5 3 9 5 Z 1013,1 60 0 0,0
22.05.2017 01:00:00 14,1 11,3 12,0 16,4 14,0 6 4 11 6 ZZW 1013,6 60 0 0,0
22.05.2017 00:00:00 16,2 11,1 14,2 16,4 14,0 2 1 11 6 ONO 1013,8 60 0 0,0
21.05.2017 23:00:00 17,7 11,7 14,6 16,3 14,0 3 2 15 8 ZZW 1013,7 60 0 0,0
21.05.2017 22:00:00 19,7 9,0 14,9 16,3 14,0 7 4 13 7 O 1013,8 60 0 0,0
21.05.2017 21:00:00 21,0 8,3 16,4 16,1 14,0 6 3 20 11 ONO 1014,0 60 0 0,0
21.05.2017 20:00:00 22,4 10,2 21,0 15,9 14,0 5 3 20 11 NO 1014,2 60 0 0,0
21.05.2017 19:00:00 24,0 9,6 25,1 15,6 14,0 10 5 26 14 ONO 1014,4 56 24 0,0
21.05.2017 18:00:00 24,8 10,6 30,2 15,3 14,0 11 6 31 17 ONO 1014,8 56 49 0,0
21.05.2017 17:00:00 25,2 11,0 31,6 14,9 14,0 11 6 26 14 ONO 1015,1 19 37 0,0
21.05.2017 16:00:00 25,2 11,7 43,5 14,6 14,0 11 6 30 16 ONO 1016,0 60 60 0,0
21.05.2017 15:00:00 23,8 9,0 43,0 14,3 14,0 13 7 27 15 NO 1016,9 60 60 0,0
21.05.2017 14:00:00 22,8 9,6 33,0 14,2 14,0 13 7 26 14 ONO 1017,8 60 52 0,0
21.05.2017 13:00:00 21,0 8,3 33,8 14,1 14,0 11 6 24 13 ONO 1018,8 19 60 0,0
21.05.2017 12:00:00 19,5 9,4 25,8 14,0 14,0 10 6 22 12 ONO 1019,5 60 55 0,0
21.05.2017 11:00:00 17,4 8,5 22,3 14,1 14,0 8 4 20 11 NO 1020,4 49 35 0,0
21.05.2017 10:00:00 14,0 9,4 14,5 14,2 14,0 5 3 13 7 N 1021,1 58 60 0,0
21.05.2017 09:00:00 9,6 8,7 9,1 14,3 14,0 2 1 5 3 WNW 1022,3 60 51 0,0
21.05.2017 08:00:00 7,1 6,8 4,2 14,4 14,0 2 1 5 3 Z 1022,6 20 60 0,0
21.05.2017 07:00:00 5,0 4,6 2,7 14,6 14,1 5 3 8 4 ZZO 1023,0 46 6 0,0
21.05.2017 06:00:00 5,0 4,6 2,4 14,7 14,1 6 4 8 4 Z 1023,3 37 0 0,0
21.05.2017 05:00:00 4,4 3,5 2,1 14,8 14,0 5 3 7 4 ZZW 1023,7 20 0 0,0
21.05.2017 04:00:00 4,9 4,0 2,3 15,0 14,1 3 2 6 4 ZZW 1024,2 39 0 0,0
21.05.2017 03:00:00 6,2 5,5 2,5 15,1 14,1 3 1 6 4 WNW 1024,6 17 0 0,0
21.05.2017 02:00:00 6,5 5,6 3,9 15,2 14,1 5 3 10 5 Z 1025,5 16 0 0,0
21.05.2017 01:00:00 8,5 7,6 4,0 15,3 14,1 4 2 8 4 ZO 1025,8 56 0 0,0
21.05.2017 00:00:00 8,1 6,9 5,4 15,4 14,1 4 2 10 6 ZZO 1026,3 18 0 0,0
20.05.2017 23:00:00 9,4 7,2 6,8 15,4 14,1 7 4 10 5 Z 1026,5 60 0 0,0
20.05.2017 22:00:00 11,6 8,4 8,0 15,4 14,1 4 2 9 5 ZZW 1025,8 60 0 0,0
20.05.2017 21:00:00 15,5 7,8 12,1 15,4 14,1 4 2 9 5 ZO 1025,1 60 38 0,0
20.05.2017 20:00:00 17,1 8,0 17,9 15,3 14,1 3 2 10 6 NW 1024,7 20 15 0,0
20.05.2017 19:00:00 16,5 7,9 19,4 15,2 14,1 6 4 19 11 W 1025,1 18 0 0,0
20.05.2017 18:00:00 16,6 8,3 21,3 15,1 14,1 14 7 23 13 WNW 1025,0 9 0 0,0
20.05.2017 17:00:00 16,8 8,5 22,1 15,0 14,1 16 9 33 18 WNW 1025,1 42 0 0,0
20.05.2017 16:00:00 16,8 8,5 22,9 14,8 14,1 15 8 39 21 WNW 1025,1 8 0 0,0

tt = temperatuur
td = dauwpunt
tt 5cm = temperatuur 5cm
tt -20cm = temperatuur -20cm
tt -100cm = temperatuur -100cm
ff = windsnelheid
fx = windstoten
dd = windrichting
ppp = luchtdruk
vv = zicht
sd = Zonneschijnduur
rr = neerslag

Weerstations in de omgeving